Regional Weather Roundup
Issued by NWS Charleston, SC

Current Version | Previous Version | Graphics & Text | Print | Product List | Glossary On
Versions: 1 2 3 4 5 6 7 8 9 10 11 12 13 14 15 16 17 18 19 20 21 22 23 24 25 26 27 28 29 30 31 32 33 34 35 36 37 38 39 40 41 42 43 44 45 46 47 48 49 50
000 ASUS42 KCHS 280127 RWRCHS REGIONAL WEATHER ROUNDUP NATIONAL WEATHER SERVICE CHARLESTON SC 900 PM EDT THU JUL 27 2017 NOTE: "FAIR" INDICATES FEW OR NO CLOUDS BELOW 12,000 FEET WITH NO SIGNIFICANT WEATHER AND/OR OBSTRUCTIONS TO VISIBILITY. NOT ALL STATIONS ARE QUALITY CONTROLLED. USE DATA WITH CAUTION... ESPECIALLY DEWPOINT OBSERVATIONS. SCZ027-030-031-034>040-042>050-280200- ...SOUTHEAST SOUTH CAROLINA... CITY SKY/WX TMP DP RH WIND PRES REMARKS N CHARLESTON MOCLDY 79 74 84 S6 29.95S WATERFRONT PRK N/A 81 76 85 S7 29.93F JOHNS ISLAND FAIR 81 77 89 S6 29.96R PINOPOLIS N/A 82 75 78 VRB2 29.88R MONCKS CORNER FAIR 79 73 83 S5 29.95S SUMMERVILLE FAIR 79 73 83 CALM 29.96S BEAUFORT MCAS MOCLDY 81 79 94 CALM 29.95R HX 90 BEAUFORT ARPT FAIR 79 73 83 CALM 29.95R HILTON HEAD IS PTCLDY 79 75 89 S3 29.96R WALTERBORO NOT AVBL ALLENDALE NOT AVBL ...SOUTHERN MIDLANDS AND PEE DEE... CITY SKY/WX TMP DP RH WIND PRES REMARKS GEORGETOWN FAIR 77 77 100 S3 29.96S KINGSTREE FAIR 79 73 83 S3 29.95R ORANGEBURG CLOUDY 81 73 76 S6 29.95R BARNWELL FAIR 84 77 79 CALM 29.95R HX 94 AIKEN FAIR 79 73 83 CALM 30.00R MANNING FAIR 82 72 69 S12G21 29.95R COLUMBIA CLOUDY 85 74 69 S3 29.93R HX 92 SUMTER MOCLDY 83 75 78 CALM 29.91S HX 90 FLORENCE CLOUDY 82 75 79 S8 29.94S MYRTLE BEACH CLEAR 82 73 74 S9 29.96S N MYRTLE BEACH CLOUDY 80 73 79 S10 29.95S $$ GAZ063-065-086>088-099>101-113>116-118-119-134>141-150-280200- ...SOUTHEAST GEORGIA... CITY SKY/WX TMP DP RH WIND PRES REMARKS SAVANNAH ARPT MOCLDY 80 74 81 S3 29.95R HUNTER AAF PTCLDY 80 75 86 CALM 29.93R FORT STEWART CLOUDY 78 75 91 CALM 29.93R STATESBORO CLOUDY 80 74 84 CALM 29.95S SYLVANIA PTCLDY 78 78 98 CALM 29.96R CLAXTON FAIR 79 76 92 CALM 29.95S ...CSRA...CENTRAL AND FAR SOUTHEAST GEORGIA... CITY SKY/WX TMP DP RH WIND PRES REMARKS THOMSON CLOUDY 80 75 85 CALM 30.01R AUGUSTA-BUSH PTCLDY 81 77 88 CALM 29.93R AUGUSTA-DANIEL CLOUDY 86 70 58 CALM 29.95S HX 90 SWAINSBORO FAIR 81 77 89 CALM 29.96F VIDALIA PTCLDY 81 77 89 CALM 29.96S EASTMAN FAIR 82 69 64 CALM 29.98S HAZLEHURST FAIR 82 78 89 CALM 29.95R HX 91 ALMA PTCLDY 81 76 84 SE3 29.95R WAYCROSS CLOUDY 82 82 100 CALM 29.96R HX 94 JESUP NOT AVBL BAXLEY FAIR 81 81 100 CALM 29.96R HX 91 BRUNSWICK CLOUDY 77 77 100 CALM 29.95S SAINT SIMONS CLOUDY 80 76 87 S3 29.94S $$ SCZ027-028-034-036>038-045-046-048>050-GAZ119-141-280200- ...LAKE AND SUPPLEMENTAL COASTAL OBSERVATIONS... STATION/POSITION TIME TEMP WIND PRES WAVE SWELL AIR SEA DIR/SP/G HT/PER HT/PER/DIR (UTC) (F) (DEG/KT/KT) (MB) (FT/S) (FT/S/D) WINYAH BAY 0030 81 230/ 4 1014.0S LAKE MURRAY 0020 87 240/ 2/ 3 1012.2 ACE BASIN NERRS 0030 80 CALM 1014.0S FORT PULASKI 0100 80 84 200/ 2/ 2 1014.4 SAPELO ISLAND 0100 79 CALM 1014.0 $$ ANZ835-935-AMZ111-154-330-350-352-354-370-450-454-472-280200- ...C-MAN AND BUOY OBSERVATIONS... STATION/POSITION TIME TEMP WIND PRES WAVE SWELL AIR SEA DIR/SP/G HT/PER HT/PER/DIR (UTC) (F) (DEG/KT/KT) (MB) (FT/S) (FT/S/D) BUOY 41004 0110 82 83 200/ 10/ 12 1014.0 BUOY 41008 0050 81 81 200/ 8/ 8 1013.7R 2/ 4 2/140/ 4 FOLLY BEACH CMAN 0100 82 200/ 12/ 14 1014.8F CAPERS NEARSHORE 0108 79 84 230/ 12/ 16 1014.3R FRIPP NEARSHORE 0108 82 84 180/ 16/ 19 1013.7R STATION/POSITION TIME TEMP WIND PRES WAVE SWELL AIR SEA DIR/SP/G HT/PER HT/PER/DIR (UTC) (F) (DEG/KT/KT) (MB) (FT/S) (FT/S/D) 5E ST. MARYS GA 0100 79 N/A 2/ 9 FRYING PAN BUOY 0110 82 83 210/ 10/ 12 1014.0 BUOY 41025 0050 82 84 180/ 14/ 16 1014.7S 2/ 7 2/ 60/ 7 CAPE LOOKOUT NC 0100 81 170/ 12/ 13 1014.3F BUOY 41002 0050 82 83 280/ 6/ 6 1015.7R 3/ 7 3/ 40/ 7 BUOY 41010 0110 85 85 160/ 8/ 10 1015.5 ST AUGUSTINE FL 0100 80 78 130/ 10/ 10 1014.5F $$

USA.gov is the U.S. government's official web portal to all federal, state and local government web resources and services.